Cody, WY

11:09 PM MDT on July 21, 2017 (GMT -0600)
Yellowstone Regional

Weather History for KCOD - January, 2014

Change the Weather History Date:

Wednesday, January 29, 2014

  Actual Average Record
Temperature  
Mean Temperature 37 °F -  
Max Temperature 44 °F 37 °F 64 °F (1935)
Min Temperature 30 °F 15 °F -33 °F (1951)
Degree Days  
Heating Degree Days 28    
Moisture  
Dew Point 23 °F    
Average Humidity 57    
Maximum Humidity 93    
Minimum Humidity 44    
Precipitation  
Precipitation 0.00 in - - ()
Sea Level Pressure  
Sea Level Pressure 29.64 in    
Wind  
Wind Speed 15 mph (West)    
Max Wind Speed 25 mph    
Max Gust Speed 39 mph    
Visibility 10 miles    
Events      
Averages and records for this station are not official NWS values.
T = Trace of Precipitation, MM = Missing Value Source: NWS Daily Summary

Daily Weather History Graph

Daily Weather History Graph

Search for Another Location

Airport or City:

Trip Planner

Search our weather history database for the weather conditions in past years. The results will help you decide how hot, cold, wet, or windy it might be!

Date:

Astronomy

Jan. 29, 2014 Rise Set
Actual Time 7:37 AM MST 5:21 PM MST
Civil Twilight 7:06 AM MST 5:52 PM MST
Nautical Twilight 6:31 AM MST 6:27 PM MST
Astronomical Twilight 5:57 AM MST 7:01 PM MST
Moon 6:17 AM MST (1/29) 4:24 PM MST (1/29)
Length of Visible Light 10h 45m
Length of Day
9h 43m
Waning Crescent, 2% of the Moon is Illuminated
Jan 29
Waning Crescent
Jan 30
New
Feb 6
First Quarter
Feb 14
Full
Feb 22
Last Quarter

Hourly Weather History & Observations

Time (MST) Temp. Windchill Dew Point Humidity Pressure Visibility Wind Dir Wind Speed Gust Speed Precip Events Conditions
12:15 AM 35.6 °F 24.2 °F 15.8 °F 44% 29.88 in 10.0 mi WSW 21.9 mph 34.5 mph N/A   Partly Cloudy
12:35 AM 35.6 °F 23.7 °F 15.8 °F 44% 29.87 in 10.0 mi WSW 24.2 mph 39.1 mph N/A   Partly Cloudy
12:55 AM 35.6 °F 23.4 °F 17.6 °F 48% 29.87 in 10.0 mi West 25.3 mph 34.5 mph N/A   Partly Cloudy
1:15 AM 35.6 °F 24.0 °F 17.6 °F 48% 29.85 in 10.0 mi West 23.0 mph 38.0 mph N/A   Clear
1:35 AM 35.6 °F 23.7 °F 17.6 °F 48% 29.83 in 10.0 mi West 24.2 mph 36.8 mph N/A   Clear
1:55 AM 37.4 °F 26.6 °F 17.6 °F 45% 29.84 in 10.0 mi WSW 21.9 mph 38.0 mph N/A   Clear
2:15 AM 37.4 °F 26.4 °F 17.6 °F 45% 29.84 in 10.0 mi West 23.0 mph 31.1 mph N/A   Clear
2:35 AM 37.4 °F 26.6 °F 19.4 °F 48% 29.84 in 10.0 mi WSW 21.9 mph 35.7 mph N/A   Clear
2:55 AM 37.4 °F 28.5 °F 19.4 °F 48% 29.85 in 10.0 mi West 15.0 mph 33.4 mph N/A   Clear
3:15 AM 37.4 °F 27.5 °F 19.4 °F 48% 29.84 in 10.0 mi WSW 18.4 mph 29.9 mph N/A   Clear
3:35 AM 37.4 °F 27.5 °F 19.4 °F 48% 29.84 in 10.0 mi WSW 18.4 mph 28.8 mph N/A   Clear
3:55 AM 37.4 °F 26.4 °F 19.4 °F 48% 29.83 in 10.0 mi WSW 23.0 mph 32.2 mph N/A   Clear
4:15 AM 37.4 °F 27.5 °F 19.4 °F 48% 29.82 in 10.0 mi WSW 18.4 mph 29.9 mph N/A   Clear
4:35 AM 37.4 °F 28.5 °F 19.4 °F 48% 29.83 in 10.0 mi WSW 15.0 mph 28.8 mph N/A   Clear
4:55 AM 37.4 °F 28.5 °F 17.6 °F 45% 29.82 in 10.0 mi West 15.0 mph 23.0 mph N/A   Clear
5:15 AM 37.4 °F 29.3 °F 19.4 °F 48% 29.81 in 10.0 mi West 12.7 mph 23.0 mph N/A   Clear
5:35 AM 37.4 °F 27.5 °F 17.6 °F 45% 29.80 in 10.0 mi West 18.4 mph 24.2 mph N/A   Clear
5:55 AM 30.2 °F 21.9 °F 12.2 °F 47% 29.80 in 10.0 mi NNW 9.2 mph 17.3 mph N/A   Clear
6:15 AM 37.4 °F 29.3 °F 19.4 °F 48% 29.80 in 10.0 mi West 12.7 mph 32.2 mph N/A   Clear
6:35 AM 37.4 °F 30.8 °F 17.6 °F 45% 29.78 in 10.0 mi NNW 9.2 mph 16.1 mph N/A   Clear
6:55 AM 39.2 °F 29.8 °F 19.4 °F 45% 29.76 in 10.0 mi West 18.4 mph 36.8 mph N/A   Clear
7:35 AM 39.2 °F 30.5 °F 19.4 °F 45% 29.77 in 10.0 mi West 16.1 mph 28.8 mph N/A   Partly Cloudy
7:55 AM 39.2 °F 30.8 °F 19.4 °F 45% 29.76 in 10.0 mi West 15.0 mph 29.9 mph N/A   Clear
8:35 AM 39.2 °F 30.2 °F 21.2 °F 49% 29.73 in 10.0 mi West 17.3 mph 26.5 mph N/A   Partly Cloudy
8:55 AM 39.2 °F 33.0 °F 21.2 °F 49% 29.74 in 10.0 mi West 9.2 mph 21.9 mph N/A   Mostly Cloudy
9:15 AM 39.2 °F 33.0 °F 23.0 °F 52% 29.74 in 10.0 mi SW 9.2 mph - N/A   Scattered Clouds
9:35 AM 39.2 °F 35.0 °F 23.0 °F 52% 29.73 in 10.0 mi SW 5.8 mph 16.1 mph N/A   Mostly Cloudy
9:55 AM 39.2 °F - 24.8 °F 56% 29.72 in 10.0 mi Calm Calm - N/A   Overcast
10:15 AM 39.2 °F 33.6 °F 23.0 °F 52% 29.71 in 10.0 mi SSE 8.1 mph - N/A   Overcast
10:35 AM 39.2 °F 32.5 °F 23.0 °F 52% 29.70 in 10.0 mi SSW 10.4 mph - N/A   Overcast
10:55 AM 39.2 °F 37.0 °F 24.8 °F 56% 29.69 in 10.0 mi WSW 3.5 mph - N/A   Overcast
11:15 AM 41.0 °F 34.7 °F 24.8 °F 53% 29.66 in 10.0 mi WSW 10.4 mph 21.9 mph N/A   Overcast
11:35 AM 41.0 °F 33.9 °F 24.8 °F 53% 29.64 in 10.0 mi WSW 12.7 mph 19.6 mph N/A   Overcast
11:55 AM 42.8 °F 34.5 °F 24.8 °F 49% 29.61 in 10.0 mi West 18.4 mph 25.3 mph N/A   Overcast
12:15 PM 42.8 °F 38.0 °F 24.8 °F 49% 29.60 in 10.0 mi WNW 8.1 mph 19.6 mph N/A   Overcast
12:35 PM 42.8 °F 38.6 °F 24.8 °F 49% 29.57 in 10.0 mi West 6.9 mph - N/A   Mostly Cloudy
12:55 PM 44.6 °F 38.1 °F 26.6 °F 49% 29.56 in 10.0 mi West 13.8 mph 23.0 mph N/A   Overcast
1:15 PM 44.6 °F 38.8 °F 24.8 °F 46% 29.54 in 10.0 mi West 11.5 mph 18.4 mph N/A   Overcast
1:35 PM 44.6 °F 41.4 °F 26.6 °F 49% 29.52 in 10.0 mi NW 5.8 mph - N/A   Overcast
1:55 PM 44.6 °F 38.1 °F 24.8 °F 46% 29.50 in 10.0 mi WSW 13.8 mph 24.2 mph N/A   Overcast
2:35 PM 42.8 °F 40.1 °F 26.6 °F 53% 29.48 in 10.0 mi West 4.6 mph 23.0 mph N/A   Overcast
2:55 PM 42.8 °F 40.1 °F 26.6 °F 53% 29.47 in 10.0 mi NNW 4.6 mph - N/A   Overcast
3:15 PM 42.8 °F 36.6 °F 26.6 °F 53% 29.46 in 10.0 mi NW 11.5 mph 18.4 mph N/A   Overcast
3:35 PM 42.8 °F 35.4 °F 28.4 °F 57% 29.45 in 10.0 mi WNW 15.0 mph 23.0 mph N/A   Overcast
3:55 PM 41.0 °F 34.3 °F 28.4 °F 61% 29.45 in 10.0 mi West 11.5 mph 19.6 mph N/A   Overcast
4:15 PM 41.0 °F 38.0 °F 28.4 °F 61% 29.44 in 10.0 mi North 4.6 mph 16.1 mph N/A   Overcast
4:35 PM 39.2 °F - 28.4 °F 65% 29.43 in 10.0 mi Calm Calm - N/A   Overcast
5:15 PM 33.8 °F 30.8 °F 23.0 °F 65% 29.44 in 10.0 mi NE 3.5 mph - N/A   Overcast
5:35 PM 33.8 °F 28.6 °F 24.8 °F 70% 29.43 in 10.0 mi SE 5.8 mph - N/A   Overcast
5:55 PM 35.6 °F 29.9 °F 26.6 °F 70% 29.43 in 10.0 mi NNE 6.9 mph - N/A   Mostly Cloudy
6:15 PM 33.8 °F 24.3 °F 24.8 °F 70% 29.44 in 10.0 mi ENE 13.8 mph - N/A   Overcast
6:35 PM 33.8 °F 29.6 °F 26.6 °F 75% 29.44 in 10.0 mi ESE 4.6 mph - N/A   Overcast
6:55 PM 35.6 °F 30.7 °F 26.6 °F 70% 29.45 in 10.0 mi ESE 5.8 mph - N/A   Overcast
7:15 PM 33.8 °F 28.6 °F 26.6 °F 75% 29.45 in 10.0 mi SE 5.8 mph - N/A   Overcast
7:35 PM 35.6 °F - 26.6 °F 70% 29.47 in 10.0 mi Calm Calm - N/A   Overcast
7:55 PM 37.4 °F 30.3 °F 30.2 °F 75% 29.47 in 10.0 mi WNW 10.4 mph 17.3 mph N/A   Overcast
8:15 PM 35.6 °F 31.7 °F 24.8 °F 65% 29.47 in 9.0 mi NNE 4.6 mph - N/A   Overcast
8:35 PM 33.8 °F 30.8 °F 26.6 °F 75% 29.50 in 4.0 mi NNE 3.5 mph - N/A   Overcast
8:55 PM 33.8 °F 30.8 °F 26.6 °F 75% 29.49 in 4.0 mi NNW 3.5 mph - N/A   Overcast
9:15 PM 32.0 °F - 28.4 °F 87% 29.50 in 9.0 mi Calm Calm - N/A   Overcast
9:35 PM 33.8 °F 24.3 °F 30.2 °F 87% 29.50 in 10.0 mi West 13.8 mph 20.7 mph N/A   Overcast
9:55 PM 30.2 °F 22.6 °F 28.4 °F 93% 29.52 in 10.0 mi NNW 8.1 mph - N/A   Mostly Cloudy
10:15 PM 32.0 °F 28.7 °F 28.4 °F 87% 29.52 in 9.0 mi NW 3.5 mph - N/A   Overcast
10:35 PM 32.0 °F - 28.4 °F 87% 29.51 in 10.0 mi Calm Calm - N/A   Scattered Clouds
10:55 PM 33.8 °F 24.3 °F 26.6 °F 75% 29.49 in 10.0 mi WSW 13.8 mph 21.9 mph N/A   Clear
11:15 PM 37.4 °F 29.3 °F 21.2 °F 52% 29.49 in 10.0 mi SW 12.7 mph 16.1 mph N/A   Clear
11:35 PM 37.4 °F 32.8 °F 19.4 °F 48% 29.50 in 10.0 mi SW 5.8 mph - N/A   Clear